Stations météo

réclame
Mon MeteoGroup
Norderney, Allemagne (10113): Température de l'air & dewpoint: 16.08.2018 01:00:00 - 22.08.2018 01:00:00 (CEST)Norderney, Allemagne (10113): Température de l'air 5cm & Température de l'air -5cm: 16.08.2018 01:00:00 - 22.08.2018 01:00:00 (CEST)Norderney, Allemagne (10113): Température de l'air -20cm & Température de l'air -100cm: 16.08.2018 01:00:00 - 22.08.2018 01:00:00 (CEST)Norderney, Allemagne (10113): Vitesse du vent & gusts: 16.08.2018 01:00:00 - 22.08.2018 01:00:00 (CEST)Norderney, Allemagne (10113): Direction du vent: 16.08.2018 01:00:00 - 22.08.2018 01:00:00 (CEST)Norderney, Allemagne (10113): reduced air pressure: 16.08.2018 01:00:00 - 22.08.2018 01:00:00 (CEST)Norderney, Allemagne (10113): visibility: 16.08.2018 01:00:00 - 22.08.2018 01:00:00 (CEST)Norderney, Allemagne (10113): Ensoleillement: 16.08.2018 01:00:00 - 22.08.2018 01:00:00 (CEST)Norderney, Allemagne (10113): Quantités de précipitations: 16.08.2018 01:00:00 - 22.08.2018 01:00:00 (CEST)
Date & Time tt [°C] td [°C] tt 5cm [°C] tt -5cm [°C] tt -20cm [°C] tt -100cm [°C] ff [km/h] ff [knt] fx [km/h] fx [knt] dd ppp [hPa] vv [km] sd [min] rr [mm]
22.08.2018 01:00:00 20,4 15,5 19,1 20,9 22,4 19,2 13 7 22 12 SSE 1019,4 48 0 0,0
22.08.2018 00:00:00 20,0 16,3 18,3 21,5 22,7 19,2 9 5 21 12 SSE 1019,4 48 0 0,0
21.08.2018 23:00:00 20,4 15,7 19,1 22,2 23,1 19,2 14 7 23 12 SE 1019,3 49 0 0,0
21.08.2018 22:00:00 20,3 17,3 18,9 23,2 23,4 19,2 10 5 15 8 SE 1019,4 44 0 0,0
21.08.2018 21:00:00 20,9 17,5 19,6 24,7 23,6 19,2 10 5 22 12 ESE 1019,1 50 27 0,0
21.08.2018 20:00:00 22,3 16,7 21,8 26,7 23,6 19,2 10 5 23 13 E 1019,1 65 60 0,0
21.08.2018 19:00:00 22,1 16,6 23,0 28,5 23,4 19,2 16 9 25 14 E 1019,5 46 60 0,0
21.08.2018 18:00:00 21,8 16,4 23,8 29,9 23,0 19,2 19 10 22 12 NE 1020,1 33 60 0,0
21.08.2018 17:00:00 21,8 16,2 25,5 30,5 22,4 19,2 16 9 19 11 NE 1020,7 28 60 0,0
21.08.2018 16:00:00 22,8 14,5 29,3 30,2 21,7 19,2 7 4 17 9 SSW 1020,8 51 58 0,0
21.08.2018 15:00:00 22,1 15,0 28,3 28,0 21,1 19,2 11 6 18 10 SSW 1021,3 45 35 0,0
21.08.2018 14:00:00 21,1 14,8 25,0 26,0 20,5 19,2 14 7 23 12 S 1021,6 44 25 0,0
21.08.2018 13:00:00 20,1 15,3 22,6 24,4 20,1 19,2 14 7 20 11 S 1021,7 34 0 0,0
21.08.2018 12:00:00 19,9 15,7 22,8 22,9 19,7 19,2 9 5 16 9 S 1022,0 36 0 0,0
21.08.2018 11:00:00 19,2 15,6 21,9 21,8 19,4 19,2 10 6 16 9 S 1022,1 32 43 0,0
21.08.2018 10:00:00 18,1 16,2 19,1 19,8 19,3 19,2 9 5 16 9 S 1021,9 21 21 0,0
21.08.2018 09:00:00 17,8 16,2 19,2 18,3 19,3 19,2 10 6 18 10 S 1021,7 17 21 0,0
21.08.2018 08:00:00 16,8 15,6 16,4 17,6 19,4 19,2 6 4 12 7 SSE 1021,5 19 0 0,0
21.08.2018 07:00:00 16,5 15,2 15,5 17,2 19,6 19,2 9 5 12 7 SSE 1021,1 29 0 0,0
21.08.2018 06:00:00 16,2 14,6 14,9 17,2 19,8 19,2 8 4 13 7 SSE 1021,0 48 0 0,0
21.08.2018 05:00:00 16,1 14,6 14,5 17,4 20,0 19,2 9 5 13 7 SSE 1021,0 60 0 0,0
21.08.2018 04:00:00 15,9 14,7 14,7 17,4 20,3 19,2 7 4 10 6 SSE 1021,0 46 0 0,0
21.08.2018 03:00:00 15,9 14,9 14,2 17,7 20,6 19,2 5 3 11 6 SSE 1020,9 45 0 0,0
21.08.2018 02:00:00 16,0 15,1 14,7 18,3 20,9 19,2 8 4 10 5 SSE 1020,8 34 0 0,0
21.08.2018 01:00:00 16,3 15,3 15,0 19,1 21,2 19,2 6 3 10 5 SSE 1020,7 39 0 0,0
21.08.2018 00:00:00 16,3 15,2 15,8 19,7 21,4 19,2 5 3 9 5 ESE 1020,7 33 0 0,2
20.08.2018 23:00:00 16,7 15,5 15,7 20,3 21,7 19,2 5 3 10 5 SSE 1020,4 27 0 0,0
20.08.2018 22:00:00 16,9 15,5 16,3 21,0 21,9 19,2 12 6 16 9 NNW 1020,5 4,5 0 0,2
20.08.2018 21:00:00 17,9 14,7 18,0 22,0 22,1 19,2 11 6 16 9 NNW 1020,1 22 0 0,0
20.08.2018 20:00:00 18,6 14,7 19,2 22,8 22,2 19,2 10 5 18 10 NNW 1019,8 16 0 0,0
20.08.2018 19:00:00 18,0 14,8 18,8 23,5 22,3 19,2 16 9 23 12 N 1019,7 16 0 0,0
20.08.2018 18:00:00 19,0 15,7 20,7 25,3 22,2 19,2 17 9 22 12 NNW 1019,6 19 2 0,0
20.08.2018 17:00:00 19,2 15,7 22,7 26,2 21,9 19,2 18 10 23 12 NNW 1019,6 18 8 0,0
20.08.2018 16:00:00 20,3 15,3 25,4 26,1 21,6 19,2 16 8 22 12 NW 1019,6 30 10 0,0
20.08.2018 15:00:00 20,1 14,9 23,8 27,0 21,0 19,2 16 9 21 11 NW 1019,4 31 38 0,0
20.08.2018 14:00:00 20,6 14,4 27,0 25,5 20,6 19,2 15 8 26 14 NW 1019,0 48 35 0,0
20.08.2018 13:00:00 19,6 14,5 23,0 23,6 20,2 19,2 23 12 28 15 NNW 1018,8 48 24 0,0
20.08.2018 12:00:00 19,4 15,6 25,3 22,4 20,0 19,2 16 9 24 13 NNW 1018,6 40 60 0,0
20.08.2018 11:00:00 18,4 16,3 22,6 20,5 19,9 19,2 24 13 35 19 N 1018,0 36 33 0,0
20.08.2018 10:00:00 18,3 16,5 19,5 19,6 19,8 19,2 26 14 33 18 N 1017,2 25 5 0,0
20.08.2018 09:00:00 18,7 16,9 18,7 19,1 19,9 19,2 22 12 35 19 NW 1016,6 21 0 0,1
20.08.2018 08:00:00 18,8 17,0 18,2 18,9 20,0 19,2 29 16 34 18 NW 1016,0 11 0 0,0
20.08.2018 07:00:00 18,6 16,7 17,8 19,0 20,1 19,2 34 19 41 22 WNW 1015,7 10 0 0,0
20.08.2018 06:00:00 19,0 17,2 18,2 19,1 20,2 19,2 28 15 38 21 W 1015,4 17 0 0,0
20.08.2018 05:00:00 19,1 17,2 18,0 19,3 20,3 19,2 31 17 43 23 W 1015,5 19 0 0,0
20.08.2018 04:00:00 19,1 17,8 18,2 19,4 20,4 19,2 29 15 40 21 W 1015,4 16 0 0,1
20.08.2018 03:00:00 18,9 17,9 18,2 19,5 20,5 19,2 22 12 37 20 WSW 1015,2 11 0 0,1
20.08.2018 02:00:00 18,7 17,8 18,1 19,7 20,6 19,2 20 11 35 19 SW 1015,2 13 0 0,7
20.08.2018 01:00:00 18,8 17,6 18,3 19,8 20,8 19,2 22 12 37 20 SW 1015,7 15 0 0,0
20.08.2018 00:00:00 18,7 17,4 18,5 19,9 20,9 19,2 23 13 41 22 SW 1015,7 16 0 0,0
19.08.2018 23:00:00 18,6 17,2 18,3 20,1 21,1 19,2 29 15 42 23 SW 1015,7 17 0 0,0
19.08.2018 22:00:00 18,5 17,1 17,8 20,4 21,3 19,2 26 14 42 23 SW 1015,7 18 0 0,0
19.08.2018 21:00:00 18,7 16,5 18,6 20,8 21,5 19,2 26 14 42 23 SW 1016,1 23 0 0,0
19.08.2018 20:00:00 18,8 16,5 18,4 21,3 21,6 19,2 27 15 47 25 SW 1016,4 13 0 0,0
19.08.2018 19:00:00 19,4 16,5 19,0 22,1 21,7 19,2 24 13 41 22 SW 1016,6 13 0 0,0
19.08.2018 18:00:00 20,0 16,1 20,1 23,2 21,7 19,2 22 12 39 21 SW 1016,7 22 0 0,0
19.08.2018 17:00:00 19,8 16,1 20,5 24,0 21,6 19,2 24 13 41 22 SW 1017,2 31 0 0,0
19.08.2018 16:00:00 20,8 15,6 21,9 24,3 21,4 19,2 19 10 35 19 SW 1017,3 33 0 0,0
19.08.2018 15:00:00 21,1 15,2 23,2 24,2 21,2 19,2 17 9 32 17 SSW 1017,7 33 0 0,0
19.08.2018 14:00:00 20,9 14,7 22,4 24,4 20,9 19,2 18 10 36 19 SSW 1018,0 37 0 0,0
19.08.2018 13:00:00 21,3 14,3 23,7 24,5 20,5 19,2 21 11 39 21 SSW 1018,4 41 6 0,0
19.08.2018 12:00:00 20,2 14,2 22,6 22,7 20,3 19,2 21 11 38 21 SSW 1018,7 36 0 0,0
19.08.2018 11:00:00 19,5 14,3 21,3 21,6 20,1 19,2 23 12 42 23 SSW 1019,0 33 0 0,0
19.08.2018 10:00:00 18,9 14,9 20,1 20,6 20,1 19,2 20 11 38 20 SSW 1019,0 30 0 0,0
19.08.2018 09:00:00 18,7 15,3 19,3 19,8 20,1 19,1 18 10 33 18 SSW 1019,4 31 0 0,0
19.08.2018 08:00:00 18,5 15,7 18,5 19,3 20,2 19,1 16 9 32 17 SSW 1019,4 25 0 0,0
19.08.2018 07:00:00 18,5 15,8 18,3 19,2 20,3 19,1 21 12 34 18 SW 1019,5 26 0 0,0
19.08.2018 06:00:00 18,4 16,0 18,2 19,3 20,4 19,1 20 11 33 18 SW 1019,7 25 0 0,0
19.08.2018 05:00:00 18,3 15,9 18,0 19,3 20,5 19,1 19 10 30 16 SW 1019,8 27 0 0,0
19.08.2018 04:00:00 18,3 15,6 17,9 19,4 20,7 19,1 22 12 33 18 SW 1020,0 34 0 0,0
19.08.2018 03:00:00 18,5 15,2 18,2 19,8 20,8 19,1 20 11 31 17 SW 1020,2 38 0 0,0
19.08.2018 02:00:00 18,5 14,9 18,2 19,9 21,0 19,1 20 11 33 18 SW 1020,4 43 0 0,0
19.08.2018 01:00:00 18,5 14,4 18,3 20,1 21,1 19,1 18 10 29 16 SW 1020,8 46 0 0,0
19.08.2018 00:00:00 18,8 14,6 18,5 20,3 21,4 19,1 16 8 25 14 SW 1020,8 46 0 0,0
18.08.2018 23:00:00 18,8 15,0 17,8 20,6 21,6 19,1 16 8 34 19 WSW 1020,7 41 0 0,0
18.08.2018 22:00:00 19,3 14,5 19,0 21,4 21,8 19,1 19 10 29 16 SW 1020,6 45 0 0,0
18.08.2018 21:00:00 19,3 14,9 19,0 22,2 21,9 19,1 21 11 37 20 WSW 1020,5 24 0 0,0
18.08.2018 20:00:00 19,7 14,9 19,7 23,2 21,9 19,1 23 13 45 24 WSW 1020,2 27 0 0,0
18.08.2018 19:00:00 19,9 15,9 20,3 24,5 21,8 19,1 29 16 42 23 W 1020,3 18 14 0,0
18.08.2018 18:00:00 20,3 15,6 21,3 25,0 21,6 19,1 23 12 42 23 WSW 1020,0 20 1 0,0
18.08.2018 17:00:00 20,9 15,2 22,8 25,3 21,4 19,1 23 13 39 21 WSW 1020,1 27 1 0,0
18.08.2018 16:00:00 21,0 15,6 23,5 24,6 21,1 19,1 21 11 39 21 SW 1019,9 32 8 0,0
18.08.2018 15:00:00 20,5 15,6 22,9 23,4 21,0 19,1 21 11 40 21 SW 1020,0 28 3 0,0
18.08.2018 14:00:00 20,4 15,0 22,5 24,2 20,6 19,1 22 12 39 21 SW 1020,2 32 14 0,0
18.08.2018 13:00:00 20,6 14,4 23,5 24,5 20,1 19,1 22 12 40 22 SW 1019,9 32 21 0,0
18.08.2018 12:00:00 20,7 14,4 25,6 24,1 19,6 19,1 21 11 37 20 SW 1019,9 42 58 0,0
18.08.2018 11:00:00 19,3 14,9 23,1 21,6 19,3 19,1 23 12 36 19 SSW 1020,0 30 60 0,0
18.08.2018 10:00:00 18,1 14,4 20,6 19,4 19,1 19,1 20 11 36 19 SSW 1020,0 34 60 0,0
18.08.2018 09:00:00 17,1 13,9 18,0 17,7 19,2 19,1 20 11 34 19 S 1019,7 33 60 0,0
18.08.2018 08:00:00 16,3 13,4 16,9 16,7 19,3 19,1 18 10 29 16 S 1019,6 34 57 0,0
18.08.2018 07:00:00 15,7 13,0 14,8 16,6 19,5 19,1 19 10 31 17 S 1019,8 34 0 0,0
18.08.2018 06:00:00 15,8 13,4 14,7 16,7 19,8 19,1 19 10 27 15 S 1019,7 34 0 0,0
18.08.2018 05:00:00 16,0 13,5 14,7 16,9 20,1 19,1 16 9 25 14 S 1019,7 33 0 0,0
18.08.2018 04:00:00 16,0 13,4 14,7 17,2 20,3 19,1 16 8 23 12 S 1019,9 37 0 0,0
18.08.2018 03:00:00 17,2 12,6 15,5 17,5 20,7 19,1 14 7 23 12 SW 1019,8 44 0 0,0
18.08.2018 02:00:00 17,1 12,9 15,5 18,0 21,0 19,1 14 8 23 13 WSW 1020,0 38 0 0,0
18.08.2018 01:00:00 17,4 12,8 15,6 18,5 21,4 19,1 15 8 22 12 WSW 1020,0 52 0 0,0
18.08.2018 00:00:00 17,6 12,3 15,7 19,1 21,8 19,1 14 7 22 12 WSW 1020,0 55 0 0,0
17.08.2018 23:00:00 17,7 12,8 15,8 20,0 22,2 19,1 12 6 27 14 SW 1019,6 57 0 0,0
17.08.2018 22:00:00 18,2 12,0 16,8 21,1 22,5 19,1 17 9 29 15 W 1019,6 61 0 0,0
17.08.2018 21:00:00 18,3 12,1 17,1 22,6 22,8 19,1 20 11 29 16 W 1019,3 39 15 0,0
17.08.2018 20:00:00 18,9 12,3 18,7 24,6 22,9 19,1 24 13 31 17 WNW 1019,0 40 42 0,0
17.08.2018 19:00:00 19,2 12,2 19,9 26,9 22,7 19,1 24 13 30 16 WNW 1018,9 38 56 0,0
17.08.2018 18:00:00 19,5 12,1 22,2 28,4 22,4 19,1 24 13 29 16 WNW 1019,0 33 60 0,0
17.08.2018 17:00:00 20,2 12,5 24,1 28,9 21,8 19,1 24 13 31 17 WNW 1019,1 30 60 0,0
17.08.2018 16:00:00 20,0 11,0 24,5 28,7 21,2 19,1 24 13 29 16 WNW 1018,9 29 59 0,0
17.08.2018 15:00:00 20,3 11,7 25,6 26,7 20,7 19,1 21 12 28 15 WNW 1018,6 39 40 0,0
17.08.2018 14:00:00 20,1 13,0 24,7 24,4 20,3 19,1 22 12 26 14 WNW 1018,2 44 15 0,0
17.08.2018 13:00:00 20,3 12,2 25,1 24,7 19,8 19,1 10 6 16 8 W 1018,0 37 50 0,0
17.08.2018 12:00:00 19,6 11,7 23,1 21,3 19,6 19,1 8 4 16 9 W 1017,8 49 6 0,0
17.08.2018 11:00:00 19,2 11,7 21,3 20,1 19,4 19,1 13 7 18 10 WNW 1017,6 52 0 0,0
17.08.2018 10:00:00 18,3 12,5 18,9 18,9 19,4 19,1 8 4 16 9 N 1016,8 58 0 0,0
17.08.2018 09:00:00 18,1 12,4 18,6 18,5 19,5 19,1 11 6 18 10 NNW 1016,3 57 0 0,0
17.08.2018 08:00:00 17,2 14,4 17,2 17,8 19,6 19,1 11 6 20 11 WSW 1015,8 41 0 0,0
17.08.2018 07:00:00 17,1 14,2 16,3 17,7 19,8 19,1 14 7 21 11 SSW 1015,5 26 0 0,0
17.08.2018 06:00:00 17,3 13,7 15,6 17,9 19,9 19,0 11 6 21 12 SW 1015,5 37 0 0,1
17.08.2018 05:00:00 17,7 13,6 16,8 18,2 20,1 19,0 11 6 27 14 WSW 1015,4 43 0 0,0
17.08.2018 04:00:00 17,9 14,1 17,3 18,3 20,3 19,0 20 11 34 18 W 1014,6 44 0 0,0
17.08.2018 03:00:00 18,3 14,2 17,6 18,3 20,5 19,0 18 10 30 16 WSW 1014,8 59 0 0,0
17.08.2018 02:00:00 18,2 14,1 16,8 18,5 20,8 19,0 11 6 21 11 SW 1014,7 66 0 0,0
17.08.2018 01:00:00 18,0 14,1 16,5 18,8 21,0 19,0 11 6 24 13 SW 1014,6 67 0 0,0
17.08.2018 00:00:00 18,0 13,7 16,9 19,3 21,3 19,0 12 7 20 11 SSW 1014,7 74 0 0,0
16.08.2018 23:00:00 17,7 14,3 16,6 20,0 21,6 19,0 13 7 21 11 S 1014,6 75 0 0,0
16.08.2018 22:00:00 17,9 14,4 17,5 20,9 21,9 19,0 12 7 20 11 S 1014,4 70 0 0,0
16.08.2018 21:00:00 18,1 14,5 18,2 22,0 22,0 19,0 17 9 32 18 W 1014,7 68 0 0,0
16.08.2018 20:00:00 18,6 16,1 19,0 23,4 22,1 19,0 24 13 36 19 WNW 1014,4 49 3 0,0
16.08.2018 19:00:00 20,3 16,6 21,0 24,6 22,0 19,0 24 13 40 21 WSW 1014,2 26 5 0,0
16.08.2018 18:00:00 21,0 16,3 22,3 24,9 21,9 19,0 26 14 43 23 WSW 1013,9 34 0 0,0
16.08.2018 17:00:00 21,5 15,5 22,6 25,4 21,7 19,0 21 12 34 18 SW 1013,8 44 0 0,0
16.08.2018 16:00:00 21,7 15,4 23,6 26,0 21,4 19,0 18 10 41 22 SSW 1013,7 50 0 0,0
16.08.2018 15:00:00 21,4 15,3 23,6 25,8 21,0 19,0 21 11 35 19 SSW 1014,0 45 1 0,0
16.08.2018 14:00:00 21,5 15,7 24,5 25,2 20,7 19,0 20 11 36 19 SSW 1013,9 40 1 0,0
16.08.2018 13:00:00 21,0 15,5 23,0 23,9 20,3 19,0 20 11 37 20 SSW 1014,2 30 1 0,0
16.08.2018 12:00:00 20,5 15,3 22,6 23,6 20,0 19,0 23 12 38 21 SSW 1014,3 24 3 0,0
16.08.2018 11:00:00 19,4 15,1 20,7 23,0 19,6 19,0 24 13 44 24 S 1014,2 26 48 0,0
16.08.2018 10:00:00 18,9 15,4 20,8 20,6 19,5 19,0 23 12 41 22 S 1014,2 22 59 0,0
16.08.2018 09:00:00 17,8 14,9 18,9 18,8 19,5 19,0 24 13 39 21 S 1014,4 16 60 0,0
16.08.2018 08:00:00 17,4 15,1 17,6 18,2 19,7 19,0 22 12 39 21 S 1014,7 15 21 0,0
16.08.2018 07:00:00 18,0 15,5 17,7 18,2 19,8 19,0 18 10 37 20 S 1015,0 15 0 0,0
16.08.2018 06:00:00 18,3 15,1 18,0 18,4 19,9 19,0 19 11 34 19 S 1014,8 16 0 0,0
16.08.2018 05:00:00 18,1 15,5 17,8 18,3 20,1 19,0 17 9 29 16 S 1015,3 12 0 0,0
16.08.2018 04:00:00 18,3 15,6 17,4 18,4 20,3 19,0 19 11 30 16 S 1015,5 13 0 0,0
16.08.2018 03:00:00 18,2 15,9 17,4 18,8 20,5 19,0 14 7 28 15 S 1016,1 14 0 0,0
16.08.2018 02:00:00 19,4 15,7 18,6 19,2 20,7 19,0 16 9 29 16 SSW 1016,5 18 0 0,0
16.08.2018 01:00:00 18,9 16,1 18,5 19,2 21,0 19,0 16 9 24 13 S 1016,8 19 0 0,0

tt = Température de l'air
td = dewpoint
tt 5cm = Température de l'air 5cm
tt -5cm = Température de l'air -5cm
tt -20cm = Température de l'air -20cm
tt -100cm = Température de l'air -100cm
ff = Vitesse du vent
fx = gusts
dd = Direction du vent
ppp = reduced air pressure
vv = visibility
sd = Ensoleillement
rr = Quantités de précipitations

stations d'obs. à proximité